Torna al catalogo

SL-16 DEB

AttivoLEO
NORAD 39712·DEBRIS·🇷🇺 Russia

Lanciato Dec 25, 1992 da Baikonur Cosmodrome

Loading…

Prossimi Passaggi (prossime 24 ore)

TLE

ObsoletoSource: Space-Track

Epoca: Aug 30, 2026, 22:53 UTC

1 39712U 92093KC  26242.95352934  .00000564  00000-0  30657-3 0  9990
2 39712  71.1280 331.5246 0090015 328.8545  30.7260 14.14445234106734

Traccia SL-16 DEB in tempo reale con AllMySat

Download on the App Store